This demonstration page uses our WeatherBlox Daily Observations layout. Learn more.

Left ArrowRight Arrow

38.83388, -104.82136

Hourly Observations for January 13, 2017

Temp ( °F °C ) Dew Point ( °F °C ) Humidity (%) Winds ( mph kmh ) Pressure ( in mb ) Visibility ( mi km ) Precip ( " mm )
12:58 am 00:58 Mostly Cloudy with Freezing Fog 16 -9 15 -9.6 95 95 SE 3 6 29.88 1012 1 2 N/A
1:58 am 01:58 Mostly Cloudy 17 -8.6 15 -9.3 95 95 Calm 29.89 1012 7 11 N/A
2:23 am 02:23 Mostly Cloudy 16 -9 16 -9 100 100 Calm 30.36 1028 7 11 N/A
2:38 am 02:38 Mostly Cloudy with Mist and Fog 16 -9 14 -10 93 93 Calm 30.36 1028 2 4 N/A
2:58 am 02:58 Mostly Cloudy 16 -9 15 -9.6 95 95 Calm 29.91 1013 8 13 N/A
3:58 am 03:58 Mostly Cloudy with Mist and Fog 17 -8.3 17 -8.5 98 98 Calm 29.91 1013 3 4 N/A
4:58 am 04:58 Mostly Cloudy 17 -8.5 15 -9.4 93 93 Calm 29.91 1013 10 16 N/A
5:58 am 05:58 Mostly Cloudy 19 -7.2 19 -7.1 100 100 NNW 6 9 29.94 1014 10 16 N/A
6:58 am 06:58 Mostly Cloudy 24 -4.2 19 -7.1 80 80 NE 3 6 29.96 1015 10 16 N/A
7:58 am 07:58 Sunny 29 -1.4 18 -7.8 62 62 Calm 29.98 1015 10 16 N/A
8:58 am 08:58 Sunny 33 0.8 19 -7 56 56 ENE 5 7 29.98 1015 10 16 N/A
9:58 am 09:58 Sunny 36 2 22 -5.3 59 59 N 6 9 30.01 1016 10 16 N/A
10:58 am 10:58 Sunny 36 2.3 19 -7.5 49 49 N 7 11 30.02 1017 10 16 N/A
11:58 am 11:58 Sunny 36 2.4 21 -6.1 54 54 Calm 30.01 1016 10 16 N/A
12:58 pm 12:58 Sunny 39 3.9 22 -5.6 50 50 ESE 5 7 29.97 1015 10 16 N/A
1:58 pm 13:58 Mostly Sunny 37 2.8 22 -5.7 54 54 N 3 6 29.99 1016 10 16 N/A
2:58 pm 14:58 Sunny 37 2.6 22 -5.4 56 56 N 5 7 30.00 1016 10 16 N/A
3:58 pm 15:58 Partly Cloudy 36 2 21 -6 56 56 NNW 6 9 30.02 1017 10 16 N/A
4:58 pm 16:58 Sunny 34 0.9 21 -6.1 60 60 NNE 6 9 30.06 1018 10 16 N/A
5:58 pm 17:58 Partly Cloudy 33 0.5 21 -6.3 61 61 NNW 6 9 30.06 1018 10 16 N/A
6:58 pm 18:58 Clear 32 -0.1 20 -6.5 62 62 Calm 30.06 1018 10 16 N/A
7:58 pm 19:58 Clear 35 1.8 20 -6.4 55 55 NNW 7 11 30.01 1016 10 16 N/A
8:58 pm 20:58 Clear 32 0.1 21 -6.3 62 62 Calm 30.03 1017 10 16 N/A
9:58 pm 21:58 Clear 31 -0.5 21 -5.9 67 67 Calm 30.02 1017 10 16 N/A
10:58 pm 22:58 Clear 33 0.4 21 -5.9 63 63 N 5 7 30.01 1016 10 16 N/A
11:58 pm 23:58 Clear 33 0.4 22 -5.8 64 64 SE 3 6 30.01 1016 10 16 N/A

Powered by AerisWeather